Starlink 31512

operational
NORAD ID: 59500 Int'l Des: 2024-071 Owner: SPXS Country: US Constellation: starlink
LEOCIRCULAR

Über Starlink 31512

Beschreibung wird geladen...

Live-Position

3D-Globus wird geladen...

Nächste Überflüge

Höhenverlauf

Altitude vs Time

uPlot chart will show altitude changes over time

Zweizeiliger Elementsatz

1 59500U 24071S 26035.55458697 -.00008767 00000-0 -30914-3 0 9998
2 59500 42.9985 126.7252 0001364 279.8234 80.2464 15.27611881103594
Epoch: 4. Feb. 2026 • Age: 18 hours

Aktueller Status

Höhe 483.6 km
Geschwindigkeit 7.63 km/s
Subsatellitenpunkt 24.69°N, 29.82°E
Startdatum 13. Apr. 2024
Alter 1.8 years
Typ internet

Technische Details

Klassifizierung Payload
Masse 730.00 kg
Trockenmasse 700.00 kg
Gesamtmasse 730.00 kg
Länge 0.30 m
Durchmesser 4.10 m
Spannweite 29.00 m
Form Box + pan
Hersteller SPXS
Bus-Typ Starlink V2M
Phasenstatus In Orbit
Besitzer/Staat SPXS/US

Große Konstellationen

Loading constellations...